Location: Beang
(6.6177°N, 10.9863°W)
Time: 22:41:03
(UTC+00:00)

Cosmos 1805 Rocket - Pass Details

Date: 07 June 2020
Orbit: 606 x 630 km, 82.5° (Epoch: 10 July)

Event Time Altitude Azimuth Distance (km) Brightness Sun altitude
Exits shadow 04:40:39 51° 145° (SE) 787 4.0 -24.9°
Maximum altitude 04:41:31 64° 93° (E) 692 3.9 -24.7°
Drops below altitude 10° 04:45:51 10° 12° (NNE) 1,979 6.6 -23.8°
Sets 04:48:05 0° 9° (N) 2,879 7.5 -23.3°
